OpenBCM V1.13 (Linux)

Packet Radio Mailbox

DB0FHN

[JN59NK Nuernberg]

 Login: GUEST





  
LU1HVK > KEP      20.09.19 08:34l 244 Lines 12026 Bytes #999 (0) @ WW
BID : 32076_LU1HVK
Read: DJ6UX DF7EAV GUEST
Subj: TLE 20 09
Path: DB0FHN<DB0BLO<DB0ERF<DB0RES<ON0AR<GB7CIP<N3HYM<IV3BVK<IK5FKA<LU9HGS<
      LU1HVK
Sent: 190920/0523Z 32076@LU1HVK.2594.CBA.ARG.SA LinBPQ6.0.18

                         _    _   _ _ _   ___     ___  __
                        | |  | | | / | | | \ \   / / |/ /
                        | |  | | | | | |_| |\ \ / /| ' /
                        | |__| |_| | |  _  | \ V / | . \
                        |_____\___/|_|_| |_|  \_/  |_|\_\

     BBS/NODO - CORDOBA (LEONES-FF87UH) - LU1HVK-4 NODO - LU1HVK-3 APRS

+----------------------------------------------------------------------------+
OSCAR 7
1  7530U 74089B   19262.91501678 -.00000038 +00000-0 +46732-4 0  9998
2  7530 101.7548 229.6548 0012095 165.4992 260.0313 12.53639777051968
OSCAR 11 (UoSAT 2)
1 14781U 84021B   19262.94083233 +.00000015 +00000-0 +79288-5 0  9993
2 14781 097.6070 283.2269 0008973 023.3506 336.8115 14.83106676891580
OSCAR 19 (LUSAT)
1 20442U 90005G   19262.88812235 -.00000002 +00000-0 +15617-4 0  9990
2 20442 098.6544 204.7582 0010791 231.8751 128.1460 14.32932926549666
EYESAT A
1 22825U 93061C   19262.90525682 -.00000012 +00000-0 +13275-4 0  9991
2 22825 098.9107 253.7002 0009512 087.7470 272.4800 14.30066540355009
ITAMSAT
1 22826U 93061D   19262.88520287 -.00000006 +00000-0 +15686-4 0  9996
2 22826 098.9047 253.6594 0010020 077.7743 282.4560 14.30400558355225
RADIO ROSTO
1 23439U 94085A   19262.81842890 -.00000051 +00000-0 -24446-3 0  9998
2 23439 064.8190 325.5292 0145443 095.1457 266.6083 11.27568186018398
JAS 2
1 24278U 96046B   19262.86768109 +.00000010 +00000-0 +47019-4 0  9999
2 24278 098.5516 043.6882 0350314 358.6296 001.3853 13.53092985140151
TECHSAT 1B
1 25397U 98043D   19262.88217018 -.00000007 +00000-0 +16173-4 0  9995
2 25397 098.6937 201.9192 0002250 107.9336 252.2088 14.23670667100912
ISS (ZARYA)
1 25544U 98067A   19263.17463164  .00000769  00000-0  21454-4 0  9995
2 25544  51.6444 250.1650 0007321  66.4238  48.4565 15.50096538189997
PCSAT
1 26931U 01043C   19262.90591507 -.00000029 +00000-0 +20518-4 0  9997
2 26931 067.0503 123.1430 0007451 271.1258 088.8990 14.30552633938230
SAUDISAT 1C
1 27607U 02058C   19262.87199093 -.00000047 +00000-0 +14285-4 0  9999
2 27607 064.5542 124.7090 0076816 238.4724 120.8860 14.75571981900654
CUTE-1
1 27844U 03031E   19262.94232227 +.00000030 +00000-0 +33052-4 0  9993
2 27844 098.6853 269.7651 0010851 118.2475 241.9799 14.22194877841509
CUBESAT XI 4
1 27848U 03031J   19262.82030235 +.00000016 +00000-0 +27138-4 0  9991
2 27848 098.6930 270.1643 0010595 129.0483 231.1639 14.21787919841340
MOZHAYETS 4
1 27939U 03042A   19262.82293575  .00000047  00000-0  17037-4 0  9993
2 27939  98.0545  36.8924 0013757 129.0621 231.1814 14.66802810854192
CUBESAT XI 5
1 28895U 05043F   19262.89079918 +.00000098 +00000-0 +27713-4 0  9996
2 28895 097.9727 042.4975 0017943 060.2474 300.0511 14.63691152740888
CUTE-1.7+APD II
1 32785U 08021C   19262.73340309 +.00000154 +00000-0 +22290-4 0  9994
2 32785 097.5545 258.0805 0012053 320.1315 039.9016 14.88344927617457
DELFI C3
1 32789U 08021G   19262.90663207 +.00000488 +00000-0 +36499-4 0  9998
2 32789 097.4560 309.7246 0012806 159.6331 200.5410 15.07111968620906
SEEDS
1 32791U 08021J   19262.72916840 +.00000133 +00000-0 +18895-4 0  9992
2 32791 097.5309 264.1375 0011820 290.8905 069.1048 14.90869469617895
YUBELEINY
1 32953U 08025A   19262.92534357 +.00000020 +00000-0 +75656-4 0  9990
2 32953 082.4983 086.7805 0018761 287.3298 072.5727 12.43091265513893
PRISM (HITOMI)
1 33493U 09002B   19262.79155719 +.00000381 +00000-0 +38847-4 0  9993
2 33493 098.1197 187.2752 0014061 232.5747 127.4195 14.96727915579060
KKS-1 (KISEKI)
1 33499U 09002H   19262.85457384 +.00000036 +00000-0 +13433-4 0  9990
2 33499 098.3444 104.5103 0007880 270.7714 089.2591 14.75462345572534
SWISSCUBE
1 35932U 09051B   19262.42070366 +.00000100 +00000-0 +33635-4 0  9990
2 35932 098.5972 071.1580 0006642 236.4235 123.6328 14.56309619530231
BEESAT
1 35933U 09051C   19262.41810104 +.00000068 +00000-0 +26387-4 0  9991
2 35933 098.5992 072.9534 0004718 250.7928 109.2758 14.56395495530304
ITUPSAT 1
1 35935U 09051E   19262.73556003 +.00000058 +00000-0 +24493-4 0  9998
2 35935 098.6103 073.5115 0007045 248.0676 111.9771 14.55552052530149
XIWANG-1 (HOPE-1)
1 36122U 09072B   19262.68943516 -.00000035  00000-0  18191-4 0  9997
2 36122 100.0760 260.7091 0007843 128.7428 231.4388 13.16351262469119
TISAT 1
1 36799U 10035E   19262.89018025 +.00000143 +00000-0 +20489-4 0  9991
2 36799 098.1679 058.2023 0013250 136.1491 224.0781 14.91156068498457
JUGNU
1 37839U 11058B   19262.90598084 +.00000308 +00000-0 +22221-4 0  9992
2 37839 019.9607 129.5108 0018878 274.5611 160.0468 14.12658742410345
SRMSAT
1 37841U 11058D   19262.10624584 +.00000307 +00000-0 +23660-4 0  9999
2 37841 019.9710 193.0489 0012037 131.7628 341.5815 14.10638972409660
M-CUBED/EXP-1 PRIME
1 37855U 11061F   19262.77550495  .00000493  00000-0  32664-4 0  9990
2 37855 101.7122 206.1530 0173087 160.7792 200.0058 15.05582815430786
HORYU 2
1 38340U 12025D   19262.73761681 +.00000116 +00000-0 +24991-4 0  9994
2 38340 098.3213 304.0825 0011503 181.3706 178.7473 14.75748990384471
STRAND 1
1 39090U 13009E   19262.51647074  .00000014  00000-0  20240-4 0  9995
2 39090  98.4803 106.8836 0009603  20.1012 340.0550 14.35097058343707
SOMP
1 39134U 13015E   19262.83907772 +.00000791 +00000-0 +45187-4 0  9999
2 39134 064.8621 078.6211 0035686 288.8891 070.8369 15.20319438354377
BEESAT 3
1 39135U 13015F   19262.92708468 +.00000422 +00000-0 +30685-4 0  9999
2 39135 064.8676 097.9580 0033522 298.6018 061.1736 15.17599309354002
BEESAT 2
1 39136U 13015G   19262.86775036 +.00000520 +00000-0 +36073-4 0  9994
2 39136 064.8682 102.2377 0025258 303.6142 056.2573 15.17019180353913
CUBEBUG 1
1 39153U 13018D   19262.82382763  .00000140  00000-0  25263-4 0  9990
2 39153  97.9806   0.4376 0015614 255.3786 104.5694 14.80595090345591
ZACUBE
1 39417U 13066B   19262.93449354 +.00000139 +00000-0 +23714-4 0  9995
2 39417 097.5628 271.1969 0060511 088.3521 272.4623 14.81148067314844
TRITON 1
1 39427U 13066M   19262.91317534 +.00000141 +00000-0 +30669-4 0  9998
2 39427 097.6867 234.5813 0112622 226.5608 132.6186 14.67878977311825
GOMX 1
1 39430U 13066Q   19262.80741621  .00000150  00000-0  36459-4 0  9991
2 39430  97.7544 213.2653 0150828 321.1737  37.8700 14.59285163310189
HUMSAT D
1 39433U 13066T   19262.82158311 +.00000256 +00000-0 +30246-4 0  9999
2 39433 097.5451 306.4809 0030419 352.9004 007.1781 14.92249823315787
CUBEBUG 2
1 39440U 13066AA  19262.90579862 +.00000124 +00000-0 +24170-4 0  9997
2 39440 097.6078 255.8647 0081134 141.2854 219.4210 14.75885498312529
FUNCUBE 1
1 39444U 13066AE  19262.74836253  .00000187  00000-0  29177-4 0  9994
2 39444  97.5602 273.0552 0059625  82.5984 278.2001 14.81973705313712
UWE-3
1 39446U 13066AG  19262.81800853 +.00000145 +00000-0 +25712-4 0  9996
2 39446 097.5845 262.8999 0071413 115.6154 245.2459 14.78420530312438
SPROUT
1 39770U 14029E   19262.87283782  .00000682  00000-0  81402-4 0  9992
2 39770  97.8880   5.5821 0009327 134.1046 226.0968 14.87424666288682
UNISAT 6
1 40012U 14033C   19262.88083311 +.00000105 +00000-0 +23034-4 0  9992
2 40012 097.7444 125.4193 0058773 155.8680 204.5303 14.74006777282419
DUCHIFAT 1
1 40021U 14033M   19262.91627271 +.00000203 +00000-0 +26501-4 0  9996
2 40021 097.9230 187.8175 0014345 100.8276 259.4557 14.90681821285436
QB50P1
1 40025U 14033R   19262.77526321  .00000187  00000-0  25908-4 0  9999
2 40025  97.9029 182.2995 0013779 110.5505 249.7191 14.88982121285179
CHUBUSAT 1
1 40300U 14070C   19262.75969303  .00000444  00000-0  22227-4 0  9992
2 40300  97.3202 334.5600 0021141  87.5778  66.1006 15.22169979270171
NUDT-PHONESAT
1 40900U 15049B   19262.81372052  .00001465  00000-0  65182-4 0  9992
2 40900  97.4366 271.2461 0011698 212.5252 232.9714 15.23039535221837
ZDPS 2A
1 40901U 15049C   19262.95832984 +.00000445 +00000-0 +25302-4 0  9990
2 40901 097.4611 267.4441 0011852 236.0121 179.1227 15.17830591221389
ZDPS 2B
1 40902U 15049D   19262.80877608  .00000915  00000-0  48692-4 0  9996
2 40902  97.4559 264.7183 0011953 233.8533 250.0783 15.17683954221338
XW-2A
1 40903U 15049E   19262.77325113  .00001310  00000-0  32587-4 0  9998
2 40903  97.3284 306.0311 0013644 161.6189 290.7976 15.42090733224591
KAITUO 1A
1 40904U 15049F   19262.77315760  .00000165  00000-0  12225-4 0  9990
2 40904  97.4694 263.2030 0013069 244.4942 215.8705 15.15429593221098
OBJECT G
1 40905U 15049G   19262.85698098  .00000424  00000-0  26653-4 0  9996
2 40905  97.4745 260.7401 0014216 238.1363 240.9500 15.14344154220978
XW-2C
1 40906U 15049H   19262.82472516  .00000349  00000-0  21781-4 0  9992
2 40906  97.4704 263.3758 0013259 234.0049 247.9615 15.15750467221109
XW-2D
1 40907U 15049J   19262.91631817 +.00000496 +00000-0 +29315-4 0  9998
2 40907 097.4684 263.1454 0012764 230.6497 216.6772 15.15946021221130
LILACSAT 2
1 40908U 15049K   19262.92140527 +.00000442 +00000-0 +28017-4 0  9992
2 40908 097.4814 261.8802 0014502 238.1791 183.3216 15.13849727220911
XW-2F
1 40910U 15049M   19262.91791534  .00000746  00000-0  40645-4 0  9992
2 40910  97.4642 265.2837 0013444 222.2393 207.0180 15.17418293221150
XW-2B
1 40911U 15049N   19262.82753652  .00000335  00000-0  20972-4 0  9997
2 40911  97.4705 263.7243 0012493 231.5020 249.9140 15.15872697221014
KAITUO 1B
1 40912U 15049P   19262.81699164  .00000823  00000-0  41628-4 0  9997
2 40912  97.4505 268.9730 0013932 201.7442 282.8895 15.19744268221454
TIANWANG 1C (TW-1C)
1 40926U 15051B   19262.87217956  .00010312  00000-0  14225-3 0  9992
2 40926  97.1264 308.9737 0008698  37.7204  48.9983 15.57341114224655
TIANWANG 1B (TW-1B)
1 40927U 15051C   19262.86352166  .00009626  00000-0  14138-3 0  9994
2 40927  97.1296 308.1476 0009182  46.4676  40.0202 15.55654264224492
